DLH403 KEWR-EDDF

Flight info

Callsign DLH403
Flight time N/A
Altitude 37000
Route GREKI DCT JUDDS DCT MARTN DCT CBIRD DCT CEFOU N579A TUDEP/M081F370 NATU NETKI/N0470F370 DCT OLAPO DCT DEXEN UY124 DOLOP DCT KEPAD L15 FINMA DCT CHT DCT ITVIP DCT KONAN DCT KOK UL607 FERDI DCT REMBA DCT SPI T180 NIVNU T847 IMCOM IMCOM1D
Aircraft A346/H-SDE2E3FGHIJ3J4J5M1P2RWXYZ/LB1D1

Departure

Time 2026-04-20 22:22
Airport Newark Liberty International Airport (KEWR)

Arrival

Time N/A
Airport Frankfurt Main Airport (EDDF)
Time Latitude Longitude Altitude Speed Heading
2026-04-20 21:16 40.69186 -74.17316 30 ft 0 kts 275°
2026-04-20 22:08 40.69186 -74.17315 30 ft 1 kts 275°
2026-04-20 22:08 40.69183 -74.17284 29 ft 4 kts 278°
2026-04-20 22:09 40.69179 -74.17249 30 ft 4 kts 276°
2026-04-20 22:09 40.69178 -74.17214 30 ft 4 kts 263°
2026-04-20 22:09 40.69184 -74.17188 27 ft 3 kts 245°
2026-04-20 22:09 40.69196 -74.17170 29 ft 4 kts 207°
2026-04-20 22:10 40.69220 -74.17156 29 ft 4 kts 203°
2026-04-20 22:10 40.69229 -74.17151 30 ft 0 kts 206°
2026-04-20 22:15 40.69224 -74.17154 30 ft 2 kts 206°
2026-04-20 22:15 40.69198 -74.17171 30 ft 6 kts 205°
2026-04-20 22:15 40.69148 -74.17203 30 ft 10 kts 206°
2026-04-20 22:16 40.69071 -74.17252 30 ft 14 kts 205°
2026-04-20 22:16 40.68977 -74.17311 30 ft 16 kts 205°
2026-04-20 22:16 40.68867 -74.17381 29 ft 19 kts 206°
2026-04-20 22:16 40.68745 -74.17459 31 ft 18 kts 206°
2026-04-20 22:17 40.68619 -74.17539 31 ft 21 kts 206°
2026-04-20 22:17 40.68496 -74.17617 31 ft 21 kts 206°
2026-04-20 22:17 40.68376 -74.17694 30 ft 18 kts 206°
2026-04-20 22:17 40.68254 -74.17772 30 ft 21 kts 206°
2026-04-20 22:18 40.68153 -74.17836 30 ft 15 kts 206°
2026-04-20 22:18 40.68051 -74.17900 30 ft 18 kts 206°
2026-04-20 22:18 40.67931 -74.17977 31 ft 18 kts 205°
2026-04-20 22:18 40.67814 -74.18051 31 ft 18 kts 205°
2026-04-20 22:19 40.67730 -74.18104 31 ft 11 kts 206°
2026-04-20 22:19 40.67677 -74.18136 31 ft 6 kts 193°
2026-04-20 22:19 40.67650 -74.18119 31 ft 6 kts 142°
2026-04-20 22:19 40.67612 -74.18066 30 ft 10 kts 130°
2026-04-20 22:20 40.67572 -74.17996 31 ft 8 kts 120°
2026-04-20 22:20 40.67560 -74.17958 31 ft 3 kts 84°
2026-04-20 22:20 40.67579 -74.17923 31 ft 6 kts 39°
2026-04-20 22:20 40.67595 -74.17910 31 ft 0 kts 26°
2026-04-20 22:21 40.67621 -74.17893 30 ft 20 kts 26°
2026-04-20 22:21 40.67948 -74.17685 28 ft 88 kts 25°
2026-04-20 22:22 40.68705 -74.17205 32 ft 151 kts 26°
2026-04-20 22:22 40.69778 -74.16475 274 ft 183 kts 20°
2026-04-20 22:22 40.70913 -74.15712 1148 ft 184 kts 22°
2026-04-20 22:22 40.72059 -74.14897 2034 ft 187 kts 29°
2026-04-20 22:23 40.73090 -74.13861 2841 ft 184 kts 34°
2026-04-20 22:23 40.74077 -74.12783 3543 ft 183 kts 35°
2026-04-20 22:23 40.75069 -74.11683 4088 ft 192 kts 36°
2026-04-20 22:23 40.76115 -74.10454 4522 ft 207 kts 38°
2026-04-20 22:24 40.77278 -74.09295 4988 ft 213 kts 18°
2026-04-20 22:24 40.78774 -74.09089 5353 ft 225 kts 351°
2026-04-20 22:24 40.80336 -74.09659 5746 ft 242 kts 334°
2026-04-20 22:24 40.81733 -74.11006 6252 ft 257 kts 309°
2026-04-20 22:25 40.82768 -74.12961 7057 ft 259 kts 310°
2026-04-20 22:25 40.84159 -74.14427 7965 ft 258 kts 335°
2026-04-20 22:25 40.85931 -74.14773 8821 ft 265 kts
2026-04-20 22:25 40.87638 -74.13785 9605 ft 276 kts 37°
2026-04-20 22:26 40.88958 -74.11836 10222 ft 289 kts 49°
2026-04-20 22:26 40.90241 -74.09697 10691 ft 305 kts 48°
2026-04-20 22:26 40.91624 -74.07481 11122 ft 318 kts 46°
2026-04-20 22:27 40.94827 -74.03099 12081 ft 343 kts 42°
2026-04-20 22:27 40.96548 -74.00809 12478 ft 359 kts 43°
2026-04-20 22:27 40.98344 -73.98381 12803 ft 376 kts 43°
2026-04-20 22:27 41.00224 -73.95844 13281 ft 388 kts 43°
2026-04-20 22:28 41.02129 -73.93281 14002 ft 392 kts 43°
2026-04-20 22:28 41.04053 -73.90697 14683 ft 396 kts 43°
2026-04-20 22:28 41.06000 -73.88090 15384 ft 399 kts 43°
2026-04-20 22:28 41.07933 -73.85503 16086 ft 402 kts 43°
2026-04-20 22:29 41.09908 -73.82861 16792 ft 404 kts 43°
2026-04-20 22:29 41.11895 -73.80201 17477 ft 408 kts 43°
2026-04-20 22:29 41.13930 -73.77475 18179 ft 411 kts 43°
2026-04-20 22:29 41.15924 -73.74802 18788 ft 414 kts 43°
2026-04-20 22:30 41.17962 -73.72069 19348 ft 418 kts 43°
2026-04-20 22:30 41.20015 -73.69313 19930 ft 421 kts 43°
2026-04-20 22:30 41.22088 -73.66528 20483 ft 424 kts 43°
2026-04-20 22:30 41.24206 -73.63680 21076 ft 428 kts 43°
2026-04-20 22:31 41.26290 -73.60875 21616 ft 431 kts 43°
2026-04-20 22:31 41.28405 -73.58022 22159 ft 435 kts 43°
2026-04-20 22:31 41.30544 -73.55133 22702 ft 439 kts 43°
2026-04-20 22:31 41.32706 -73.52212 23241 ft 442 kts 43°
2026-04-20 22:32 41.34873 -73.49279 23768 ft 446 kts 44°
2026-04-20 22:32 41.37058 -73.46319 24199 ft 450 kts 44°
2026-04-20 22:32 41.39262 -73.43330 24600 ft 454 kts 44°
2026-04-20 22:32 41.41485 -73.40312 24984 ft 458 kts 44°
2026-04-20 22:33 41.43728 -73.37264 25374 ft 462 kts 44°
2026-04-20 22:33 41.45990 -73.34188 25768 ft 466 kts 44°
2026-04-20 22:33 41.48271 -73.31085 26145 ft 470 kts 43°
2026-04-20 22:33 41.50589 -73.27985 26522 ft 474 kts 43°
2026-04-20 22:34 41.52951 -73.24858 26842 ft 480 kts 43°
2026-04-20 22:34 41.55328 -73.21709 27203 ft 484 kts 43°
2026-04-20 22:34 41.57730 -73.18516 27566 ft 488 kts 43°
2026-04-20 22:34 41.60173 -73.15337 27895 ft 491 kts 38°
2026-04-20 22:35 41.63038 -73.12887 28141 ft 490 kts 20°
2026-04-20 22:35 41.66294 -73.11683 28534 ft 483 kts
2026-04-20 22:35 41.69608 -73.11726 29114 ft 473 kts 349°
2026-04-20 22:35 41.72866 -73.12297 29771 ft 471 kts 348°
2026-04-20 22:36 41.76110 -73.12897 30271 ft 472 kts 348°
2026-04-20 22:36 41.79367 -73.13496 30671 ft 473 kts 348°
2026-04-20 22:36 41.82636 -73.14080 31095 ft 473 kts 348°
2026-04-20 22:36 41.85900 -73.14651 31496 ft 473 kts 348°
2026-04-20 22:37 41.89166 -73.15215 31895 ft 474 kts 348°
2026-04-20 22:37 41.92441 -73.15777 32292 ft 474 kts 348°
2026-04-20 22:37 41.95718 -73.16338 32684 ft 475 kts 348°
2026-04-20 22:37 41.98992 -73.16898 33102 ft 475 kts 348°
2026-04-20 22:38 42.02255 -73.17456 33489 ft 475 kts 348°
2026-04-20 22:38 42.05535 -73.18017 33892 ft 475 kts 348°
2026-04-20 22:38 42.08819 -73.18578 34259 ft 476 kts 348°
2026-04-20 22:38 42.10993 -73.18951 34466 ft 476 kts 348°
2026-04-20 22:39 42.14279 -73.19514 34758 ft 476 kts 348°
2026-04-20 22:39 42.17566 -73.20078 35037 ft 477 kts 348°
2026-04-20 22:39 42.20871 -73.20646 35306 ft 477 kts 348°
2026-04-20 22:39 42.24123 -73.21432 35528 ft 473 kts 339°
2026-04-20 22:40 42.27154 -73.23035 35698 ft 466 kts 327°
2026-04-20 22:40 42.29838 -73.25436 35854 ft 460 kts 315°
2026-04-20 22:40 42.32119 -73.28425 36037 ft 456 kts 309°
2026-04-20 22:40 42.34251 -73.31625 36237 ft 456 kts 307°
2026-04-20 22:41 42.36325 -73.34875 36395 ft 457 kts 307°
2026-04-20 22:41 42.38390 -73.38151 36574 ft 458 kts 307°
2026-04-20 22:41 42.40466 -73.41434 36729 ft 459 kts 309°
2026-04-20 22:41 42.42820 -73.44397 36844 ft 467 kts 319°
2026-04-20 22:42 42.45554 -73.46823 36966 ft 473 kts 328°
2026-04-20 22:42 42.48568 -73.48670 37136 ft 479 kts 336°
2026-04-20 22:42 42.55172 -73.50425 37220 ft 491 kts 354°
2026-04-20 22:43 42.61997 -73.49272 37229 ft 502 kts 13°
2026-04-20 22:43 42.68322 -73.45137 37247 ft 511 kts 33°
2026-04-20 22:44 42.73984 -73.39288 37249 ft 511 kts 36°
2026-04-20 22:44 42.79586 -73.33339 37246 ft 511 kts 35°
2026-04-20 22:45 42.85212 -73.27415 37241 ft 511 kts 35°
2026-04-20 22:45 42.90861 -73.21483 37234 ft 513 kts 35°
2026-04-20 22:46 42.96519 -73.15537 37235 ft 513 kts 35°
2026-04-20 22:46 43.02182 -73.09575 37250 ft 512 kts 35°
2026-04-20 22:47 43.07828 -73.03618 37248 ft 512 kts 35°
2026-04-20 22:47 43.13460 -72.97661 37242 ft 512 kts 36°
2026-04-20 22:48 43.19101 -72.91684 37244 ft 514 kts 36°
2026-04-20 22:48 43.24764 -72.85666 37243 ft 515 kts 36°
2026-04-20 22:49 43.30428 -72.79632 37242 ft 515 kts 36°
2026-04-20 22:49 43.36048 -72.73631 37243 ft 514 kts 36°
2026-04-20 22:50 43.41691 -72.67590 37236 ft 514 kts 36°
2026-04-20 22:50 43.47339 -72.61530 37236 ft 514 kts 36°
2026-04-20 22:51 43.53005 -72.55439 37233 ft 517 kts 36°
2026-04-20 22:51 43.58685 -72.49314 37233 ft 518 kts 36°
2026-04-20 22:52 43.64360 -72.43176 37252 ft 517 kts 36°
2026-04-20 22:52 43.69971 -72.37089 37228 ft 510 kts 36°
2026-04-20 22:53 43.75544 -72.31039 37227 ft 509 kts 36°
2026-04-20 22:53 43.81117 -72.24974 37233 ft 509 kts 36°
2026-04-20 22:54 43.86688 -72.18896 37230 ft 509 kts 36°
2026-04-20 22:54 43.92258 -72.12800 37236 ft 510 kts 36°
2026-04-20 22:55 43.97833 -72.06685 37246 ft 509 kts 36°
2026-04-20 22:55 44.03389 -72.00575 37242 ft 509 kts 36°
2026-04-20 22:56 44.08934 -71.94462 37241 ft 509 kts 36°
2026-04-20 22:56 44.14499 -71.88316 37242 ft 512 kts 37°
2026-04-20 22:57 44.20081 -71.82131 37245 ft 513 kts 37°
2026-04-20 22:57 44.25662 -71.75931 37248 ft 513 kts 37°
2026-04-20 22:58 44.31236 -71.69724 37234 ft 513 kts 37°
2026-04-20 22:58 44.36781 -71.63538 37227 ft 513 kts 37°
2026-04-20 22:59 44.42353 -71.57304 37226 ft 513 kts 37°
2026-04-20 22:59 44.47923 -71.51057 37220 ft 513 kts 37°
2026-04-20 23:00 44.53491 -71.44793 37238 ft 513 kts 37°
2026-04-20 23:00 44.59059 -71.38514 37228 ft 513 kts 37°
2026-04-20 23:01 44.64619 -71.32227 37247 ft 513 kts 37°
2026-04-20 23:01 44.70175 -71.25928 37245 ft 513 kts 37°
2026-04-20 23:02 44.75738 -71.19601 37229 ft 513 kts 37°
2026-04-20 23:02 44.81333 -71.13361 37240 ft 513 kts 33°
2026-04-20 23:03 44.87372 -71.08042 37233 ft 511 kts 26°
2026-04-20 23:03 44.93731 -71.03574 37237 ft 510 kts 23°
2026-04-20 23:04 45.00119 -70.99247 37242 ft 510 kts 23°
2026-04-20 23:04 45.06511 -70.94875 37238 ft 510 kts 24°
2026-04-20 23:05 45.12896 -70.90473 37235 ft 510 kts 24°
2026-04-20 23:05 45.19275 -70.86056 37235 ft 510 kts 24°
2026-04-20 23:06 45.25651 -70.81628 37242 ft 510 kts 24°
2026-04-20 23:06 45.32032 -70.77184 37235 ft 510 kts 24°
2026-04-20 23:07 45.38406 -70.72734 37235 ft 511 kts 24°
2026-04-20 23:07 45.44741 -70.68301 37232 ft 511 kts 24°
2026-04-20 23:08 45.51120 -70.63824 37234 ft 511 kts 24°
2026-04-20 23:08 45.57503 -70.59336 37235 ft 511 kts 24°
2026-04-20 23:09 45.63885 -70.54834 37227 ft 511 kts 24°
2026-04-20 23:09 45.70270 -70.50320 37240 ft 511 kts 24°
2026-04-20 23:10 45.76654 -70.45795 37233 ft 511 kts 24°
2026-04-20 23:10 45.83031 -70.41262 37227 ft 511 kts 24°
2026-04-20 23:11 45.89405 -70.36720 37226 ft 512 kts 24°
2026-04-20 23:11 45.95785 -70.32163 37221 ft 512 kts 24°
2026-04-20 23:12 46.02160 -70.27597 37224 ft 512 kts 24°
2026-04-20 23:12 46.08538 -70.23018 37230 ft 512 kts 24°
2026-04-20 23:13 46.14906 -70.18434 37221 ft 512 kts 24°
2026-04-20 23:13 46.21273 -70.13837 37222 ft 511 kts 25°
2026-04-20 23:14 46.27637 -70.09233 37228 ft 511 kts 25°
2026-04-20 23:14 46.33995 -70.04619 37225 ft 511 kts 25°
2026-04-20 23:15 46.40343 -69.99999 37223 ft 511 kts 25°
2026-04-20 23:15 46.46697 -69.95361 37230 ft 511 kts 25°
2026-04-20 23:16 46.53051 -69.90712 37230 ft 511 kts 25°
2026-04-20 23:16 46.59403 -69.86053 37229 ft 511 kts 25°
2026-04-20 23:17 46.65759 -69.81381 37235 ft 512 kts 25°
2026-04-20 23:17 46.72114 -69.76697 37241 ft 512 kts 25°
2026-04-20 23:18 46.78442 -69.72018 37242 ft 512 kts 25°
2026-04-20 23:18 46.84794 -69.67311 37245 ft 512 kts 25°
2026-04-20 23:19 46.91150 -69.62588 37238 ft 512 kts 25°
2026-04-20 23:19 46.97503 -69.57854 37238 ft 512 kts 25°
2026-04-20 23:20 47.03843 -69.53116 37235 ft 512 kts 26°
2026-04-20 23:20 47.10196 -69.48356 37235 ft 512 kts 26°
2026-04-20 23:21 47.16544 -69.43586 37234 ft 512 kts 26°
2026-04-20 23:21 47.22886 -69.38810 37232 ft 512 kts 26°
2026-04-20 23:22 47.29233 -69.34015 37226 ft 513 kts 26°
2026-04-20 23:22 47.35579 -69.29207 37226 ft 513 kts 26°